Flag for Kazakhstan Weather past 2 weeks in Qyzylorda, Kazakhstan

Now
55 °F

Sprinkles. Passing clouds.


Feels Like: 53 °F
Forecast: 40 / 56 °F
Wind: 10 mph from Southwest

Location: Kzyl-Orda

Current Time: Oct 24, 2014 at 11:17:43 PM

Latest Report: Oct 24, 2014 at 11:00 PM


Visibility: 6 mi

Pressure: 29.89 "Hg

Humidity: 82%

Dew point: 50 °F

Location of QyzylordaLocation

Historic Weather in Qyzylorda — Graph

°F

Qyzylorda temperature yesterday

Maximum temperature yesterday: 57 °F (at 5:00 PM)
Minimum temperature yesterday: 45 °F (at 12:00 AM)
Average temperature yesterday: 49 °F

Past Weeks' High & Low Weather Summary

 TemperatureHumidityPressure
High81 °F (Oct 17, 2:30 PM)100% (Oct 19, 10:00 AM)30.63 "Hg (Oct 19, 10:00 AM)
Low28 °F (Oct 12, 4:00 AM)7% (Oct 16, 4:30 PM)29.56 "Hg (Oct 19, 3:00 AM)
Average52 °F54%30.09 "Hg
* Reported Oct 9 10:00 PM — Oct 24 10:00 PM, Qyzylorda, Weather by CustomWeather, © 2014

Note: Actual official high and low records may vary slightly from our data, if they occured in-between our weather recording intervals... More about our weather records

Advertising

Qyzylorda weather history for previous 24 hours

 ConditionsComfort  
Time TempWeatherWind HumidityBarometerVisibility
10:00 PM
Oct 24
57 °FPassing clouds.10 mph77%29.89 "HgN/A
9:30 PM57 °FPassing clouds.8 mph72%29.92 "HgN/A
9:00 PM57 °FPassing clouds.8 mph72%29.92 "HgN/A
8:30 PM57 °FPassing clouds.6 mph72%29.92 "HgN/A
8:00 PM57 °FPassing clouds.6 mph72%29.92 "HgN/A
7:30 PM57 °FPassing clouds.6 mph72%29.92 "HgN/A
7:00 PM59 °FPassing clouds.6 mph68%29.92 "HgN/A
6:30 PM61 °FPartly sunny.8 mph63%29.92 "HgN/A
6:00 PM63 °FPartly sunny.6 mph59%29.95 "HgN/A
5:30 PM63 °FPartly sunny.8 mph59%29.95 "HgN/A
5:00 PM64 °FPartly sunny.13 mph56%29.95 "HgN/A
4:30 PM63 °FPartly sunny.10 mph59%29.95 "HgN/A
4:00 PM63 °FPartly sunny.10 mph59%29.95 "HgN/A
3:30 PM63 °FPartly sunny.10 mph59%29.95 "HgN/A
3:00 PM61 °FSunny.13 mph63%29.98 "Hg10 mi
2:30 PM59 °FSunny.13 mph68%29.98 "Hg10 mi
2:00 PM59 °FSunny.13 mph68%29.98 "Hg10 mi
1:30 PM57 °FSunny.13 mph72%30.01 "Hg10 mi
1:00 PM57 °FSunny.13 mph72%30.01 "Hg10 mi
12:30 PM57 °FSunny.15 mph72%30.04 "Hg10 mi
12:00 PM55 °FOvercast.13 mph77%30.04 "HgN/A
11:30 AM52 °FOvercast.13 mph82%30.04 "HgN/A
11:00 AM52 °FOvercast.13 mph82%30.04 "HgN/A
10:30 AM50 °FOvercast.13 mph88%30.07 "HgN/A
10:00 AM48 °FSunny.10 mph94%30.07 "Hg10 mi
9:30 AM48 °FSunny.10 mph87%30.07 "Hg10 mi
8:30 AM46 °FSunny.8 mph93%30.07 "Hg10 mi
8:00 AM46 °FClear.8 mph87%30.07 "Hg10 mi
7:30 AM45 °FClear.8 mph93%30.07 "Hg10 mi
7:00 AM45 °FClear.8 mph93%30.07 "Hg10 mi
6:30 AM45 °FClear.6 mph93%30.07 "Hg10 mi
6:00 AM45 °FClear.6 mph93%30.07 "Hg10 mi
5:00 AM45 °FClear.8 mph93%30.07 "Hg10 mi
4:00 AM43 °FClear.6 mph87%30.07 "Hg10 mi
3:00 AM43 °FClear.6 mph87%30.09 "Hg10 mi
2:00 AM43 °FClear.6 mph87%30.09 "Hg10 mi
1:00 AM45 °FClear.6 mph87%30.09 "Hg10 mi
12:00 AM45 °FClear.6 mph87%30.12 "Hg10 mi
11:00 PM
Oct 23
45 °FClear.6 mph87%30.12 "Hg10 mi
Weather by CustomWeather, © 2014

See weather overviewHow to use our weather pages